QPF
0.00 0.00 0.00 0.00 0.00 0.00 0.00 0.00 0.00 0.00 0.00 0.00 0.00 0.00 0.00 0.00 0.00 0.00 0.00 0.00 0.00 0.00 0.00 0.00 0.00 0.00 0.00 0.00 0.00 0.00 0.00 0.00 0.00 0.00 0.00 0.00 0.00 0.00 0.00 0.00 0.00 0.00 0.00 0.04
0.00 0.00 0.00 0.00 0.00 0.00 0.00 0.00 0.00 0.00 0.00 0.00 0.00 0.00 0.00 0.00 0.00 0.00 0.00 0.00 0.00 0.00 0.00 0.00 0.00 0.00 0.00 0.00 0.00 0.00 0.00 0.00 0.00 0.00 0.00 0.00 0.00 0.00 0.00 0.00 0.00 0.00 0.01 0.04
0.00 0.00 0.00 0.00 0.00 0.00 0.00 0.00 0.00 0.00 0.00 0.00 0.00 0.00 0.00 0.00 0.00 0.00 0.00 0.00 0.00 0.01 0.01 0.00 0.00 0.00 0.00 0.00 0.00 0.00 0.00 0.00 0.00 0.00 0.00 0.00 0.00 0.00 0.00 0.00 0.00 0.00 0.00 0.00
0.00 0.00 0.00 0.00 0.00 0.00 0.00 0.00 0.00 0.00 0.00 0.00 0.00 0.00 0.00 0.00 0.00 0.00 0.00 0.00 0.00 0.00 0.00 0.00 0.01 0.01 0.00 0.00 0.00 0.00 0.00 0.00 0.00 0.00 0.00 0.00 0.00 0.00 0.00 0.00 0.00 0.00 0.00 0.01
0.00 0.00 0.00 0.00 0.00 0.00 0.00 0.00 0.00 0.00 0.00 0.00 0.00 0.00 0.00 0.00 0.00 0.00 0.00 0.00 0.00 0.00 0.00 0.00 0.01 0.03 0.03 0.01 0.00 0.00 0.00 0.00 0.00 0.00 0.00 0.00 0.00 0.00 0.00 0.00 0.00 0.00 0.01 0.00
0.00 0.00 0.00 0.00 0.00 0.00 0.00 0.00 0.00 0.00 0.00 0.00 0.00 0.00 0.00 0.00 0.00 0.00 0.00 0.00 0.00 0.00 0.00 0.00 0.01 0.00 0.01 0.03 0.01 0.00 0.00 0.00 0.00 0.00 0.00 0.00 0.00 0.00 0.00 0.00 0.00 0.00 0.05 0.00
0.00 0.00 0.00 0.00 0.00 0.00 0.00 0.00 0.00 0.00 0.00 0.00 0.00 0.00 0.00 0.00 0.00 0.00 0.00 0.00 0.00 0.00 0.00 0.00 0.00 0.00 0.00 0.00 0.00 0.00 0.00 0.00 0.00 0.00 0.00 0.00 0.00 0.00 0.00 0.00 0.00 0.00 0.00 0.00
0.00 0.00 0.00 0.00 0.00 0.00 0.00 0.00 0.00 0.00 0.00 0.00 0.00 0.00 0.00 0.00 0.00 0.00 0.00 0.00 0.00 0.00 0.00 0.00 0.00 0.00 0.00 0.00 0.00 0.01 0.00 0.00 0.00 0.00 0.00 0.00 0.00 0.00 0.00 0.00 0.00 0.00 0.00 0.00
0.00 0.00 0.00 0.00 0.00 0.00 0.00 0.00 0.00 0.00 0.00 0.00 0.00 0.00 0.00 0.00 0.00 0.00 0.00 0.00 0.00 0.00 0.00 0.00 0.00 0.00 0.00 0.00 0.01 0.03 0.00 0.00 0.00 0.00 0.00 0.00 0.00 0.00 0.00 0.00 0.00 0.00 0.01 0.01
0.00 0.00 0.00 0.00 0.00 0.00 0.00 0.00 0.00 0.00 0.00 0.00 0.00 0.00 0.00 0.00 0.00 0.00 0.00 0.00 0.00 0.00 0.00 0.00 0.00 0.00 0.00 0.02 0.05 0.02 0.00 0.00 0.00 0.00 0.00 0.00 0.00 0.00 0.00 0.00 0.00 0.00 0.00 0.03
0.00 0.00 0.00 0.00 0.00 0.00 0.00 0.00 0.00 0.00 0.00 0.00 0.00 0.00 0.00 0.00 0.00 0.00 0.00 0.00 0.00 0.00 0.00 0.00 0.00 0.00 0.00 0.01 0.03 0.01 0.00 0.00 0.00 0.00 0.00 0.00 0.00 0.00 0.00 0.00 0.00 0.00 0.00 0.00
0.00 0.00 0.00 0.00 0.00 0.00 0.00 0.00 0.00 0.00 0.00 0.00 0.00 0.00 0.00 0.00 0.00 0.00 0.00 0.00 0.00 0.00 0.00 0.00 0.00 0.00 0.00 0.00 0.00 0.00 0.00 0.00 0.00 0.00 0.00 0.00 0.00 0.00 0.00 0.00 0.00 0.00 0.00 0.00
0.00 0.00 0.00 0.00 0.00 0.00 0.00 0.00 0.00 0.00 0.00 0.00 0.00 0.00 0.00 0.00 0.00 0.00 0.00 0.00 0.00 0.00 0.00 0.00 0.00 0.00 0.00 0.00 0.00 0.00 0.00 0.00 0.00 0.00 0.00 0.00 0.00 0.00 0.00 0.00 0.00 0.00 0.00 0.00
0.00 0.00 0.00 0.00 0.00 0.00 0.00 0.00 0.00 0.00 0.00 0.00 0.00 0.00 0.00 0.00 0.00 0.00 0.00 0.00 0.00 0.00 0.00 0.00 0.00 0.00 0.00 0.00 0.00 0.00 0.00 0.00 0.00 0.00 0.01 0.00 0.00 0.00 0.00 0.01 0.02 0.02 0.03 0.01
0.00 0.00 0.00 0.00 0.00 0.00 0.00 0.00 0.00 0.00 0.00 0.00 0.00 0.00 0.00 0.00 0.00 0.00 0.00 0.00 0.00 0.00 0.00 0.00 0.00 0.00 0.00 0.00 0.00 0.00 0.00 0.00 0.00 0.00 0.00 0.01 0.01 0.02 0.06 0.20 0.20 0.17 0.14 0.11
0.00 0.00 0.00 0.00 0.00 0.00 0.00 0.00 0.00 0.00 0.00 0.00 0.00 0.00 0.00 0.00 0.00 0.00 0.00 0.00 0.00 0.00 0.00 0.00 0.00 0.00 0.00 0.00 0.00 0.00 0.00 0.00 0.00 0.00 0.00 0.08 0.01 0.03 0.07 0.17 0.26 0.36 0.32 0.25
0.00 0.00 0.00 0.00 0.00 0.00 0.00 0.00 0.00 0.00 0.00 0.00 0.00 0.00 0.00 0.00 0.00 0.00 0.00 0.00 0.00 0.00 0.00 0.00 0.00 0.00 0.00 0.00 0.00 0.00 0.00 0.00 0.01 0.02 0.01 0.01 0.00 0.00 0.03 0.04 0.06 0.13 0.20 0.26
0.00 0.00 0.00 0.00 0.00 0.00 0.00 0.00 0.00 0.00 0.00 0.00 0.00 0.00 0.00 0.00 0.00 0.00 0.00 0.00 0.00 0.00 0.01 0.00 0.00 0.00 0.00 0.00 0.00 0.00 0.00 0.00 0.00 0.00 0.00 0.00 0.00 0.03 0.04 0.03 0.01 0.00 0.02 0.06
0.00 0.00 0.00 0.00 0.00 0.00 0.00 0.00 0.00 0.00 0.00 0.00 0.00 0.00 0.00 0.00 0.00 0.00 0.00 0.00 0.00 0.00 0.00 0.00 0.00 0.00 0.00 0.00 0.00 0.00 0.00 0.00 0.00 0.00 0.00 0.00 0.00 0.01 0.01 0.00 0.00 0.00 0.00 0.00
0.00 0.00 0.00 0.00 0.00 0.00 0.00 0.00 0.00 0.00 0.00 0.00 0.00 0.00 0.00 0.00 0.00 0.00 0.00 0.00 0.00 0.00 0.00 0.00 0.00 0.00 0.00 0.00 0.00 0.00 0.00 0.00 0.00 0.00 0.00 0.00 0.00 0.00 0.00 0.00 0.00 0.00 0.00 0.00
0.00 0.00 0.00 0.00 0.00 0.00 0.00 0.00 0.00 0.00 0.00 0.00 0.00 0.00 0.00 0.00 0.00 0.00 0.00 0.00 0.00 0.00 0.00 0.00 0.00 0.00 0.00 0.00 0.00 0.00 0.00 0.00 0.00 0.00 0.00 0.00 0.00 0.00 0.00 0.00 0.00 0.00 0.00 0.00
0.00 0.00 0.00 0.00 0.00 0.00 0.00 0.00 0.00 0.00 0.00 0.00 0.00 0.00 0.00 0.00 0.00 0.00 0.00 0.00 0.00 0.00 0.00 0.00 0.00 0.00 0.00 0.00 0.00 0.00 0.00 0.00 0.00 0.00 0.00 0.00 0.00 0.00 0.00 0.00 0.00 0.00 0.00 0.00
0.00 0.00 0.00 0.00 0.00 0.00 0.00 0.00 0.00 0.00 0.00 0.00 0.00 0.00 0.00 0.00 0.00 0.00 0.00 0.00 0.00 0.00 0.00 0.00 0.00 0.00 0.00 0.00 0.00 0.00 0.00 0.00 0.00 0.00 0.00 0.00 0.00 0.00 0.00 0.01 0.01 0.01 0.01 0.03
0.00 0.00 0.00 0.00 0.00 0.00 0.00 0.00 0.00 0.00 0.00 0.00 0.00 0.00 0.00 0.00 0.00 0.00 0.00 0.00 0.00 0.00 0.00 0.00 0.00 0.00 0.00 0.00 0.00 0.00 0.00 0.00 0.00 0.00 0.00 0.00 0.00 0.00 0.00 0.00 0.02 0.05 0.06 0.07
0.00 0.00 0.00 0.00 0.00 0.00 0.00 0.00 0.00 0.00 0.00 0.00 0.00 0.00 0.00 0.00 0.00 0.00 0.00 0.00 0.00 0.00 0.00 0.00 0.00 0.00 0.00 0.00 0.00 0.00 0.00 0.00 0.00 0.00 0.00 0.00 0.00 0.00 0.00 0.00 0.00 0.01 0.01 0.03
0.00 0.00 0.00 0.00 0.00 0.00 0.00 0.00 0.00 0.00 0.00 0.00 0.00 0.00 0.00 0.00 0.00 0.00 0.00 0.00 0.00 0.00 0.00 0.00 0.00 0.00 0.00 0.00 0.00 0.00 0.00 0.00 0.00 0.00 0.00 0.00 0.00 0.00 0.00 0.00 0.00 0.00 0.00 0.01
MSLP
1008.67 1009.15 1008.57 1007.68 1007.70 1007.36 1007.48 1007.38 1006.98 1006.32 1005.92 1006.34 1007.18 1008.39 1009.29 1009.95 1010.65 1011.45 1011.71 1012.18 1012.17 1012.11 1012.62 1012.93 1013.05 1013.22 1013.53 1013.88 1014.22 1014.41 1014.86 1015.13 1015.58 1016.03 1016.34 1016.59 1016.53 1016.62 1016.73 1016.89 1016.98 1017.07 1017.34 1017.59
1008.33 1007.86 1006.78 1006.84 1006.68 1006.71 1006.88 1007.07 1006.86 1006.63 1006.62 1006.97 1007.10 1007.96 1008.66 1009.38 1009.55 1010.15 1010.89 1011.40 1011.61 1012.10 1012.17 1012.32 1012.63 1012.94 1013.03 1013.19 1013.61 1013.99 1014.16 1014.64 1015.09 1015.56 1015.78 1016.12 1016.29 1016.39 1016.47 1016.60 1016.76 1016.81 1016.97 1017.26
1007.41 1006.13 1005.77 1005.95 1005.79 1006.09 1006.11 1006.52 1006.68 1006.66 1007.20 1007.29 1007.67 1007.77 1008.37 1008.81 1009.04 1009.65 1010.03 1010.29 1010.63 1010.86 1010.93 1011.22 1011.65 1012.05 1012.51 1012.55 1012.65 1013.14 1013.52 1013.79 1014.28 1014.83 1015.44 1016.04 1016.33 1016.37 1016.48 1016.62 1016.70 1016.52 1016.69 1016.99
1006.51 1005.40 1005.30 1005.28 1005.08 1005.10 1005.53 1005.14 1006.02 1006.84 1007.62 1008.18 1008.27 1008.77 1007.84 1008.06 1008.36 1008.68 1008.87 1009.09 1009.40 1009.75 1010.04 1010.47 1010.84 1011.20 1011.32 1011.59 1012.09 1012.32 1012.84 1013.36 1013.81 1014.18 1014.83 1015.15 1015.63 1016.00 1015.93 1016.09 1016.25 1016.36 1016.43 1016.68
1005.43 1004.94 1004.69 1004.47 1004.15 1004.41 1004.81 1005.11 1006.25 1007.29 1008.25 1008.81 1009.20 1009.32 1007.86 1007.77 1007.97 1007.53 1007.59 1007.65 1007.97 1008.23 1008.75 1009.06 1009.43 1009.64 1009.78 1010.44 1010.93 1011.43 1012.07 1012.60 1013.04 1013.57 1013.95 1014.51 1015.08 1015.17 1015.52 1015.91 1016.14 1016.25 1016.37 1016.49
1005.10 1004.38 1003.89 1003.49 1003.29 1003.60 1004.46 1005.67 1007.14 1008.34 1009.26 1009.65 1009.57 1009.49 1007.69 1007.25 1006.88 1006.39 1006.44 1006.63 1006.86 1007.02 1007.49 1007.87 1007.93 1008.80 1009.24 1009.72 1010.23 1010.71 1011.30 1011.68 1012.30 1012.85 1013.35 1013.78 1014.22 1014.78 1015.43 1015.90 1015.94 1016.12 1016.34 1016.41
1005.13 1004.11 1003.52 1003.10 1003.19 1003.53 1004.40 1006.23 1008.02 1009.62 1010.60 1010.49 1009.51 1009.41 1007.18 1006.27 1005.57 1005.29 1005.50 1005.63 1005.68 1005.64 1005.95 1006.39 1006.75 1007.39 1008.13 1008.68 1009.09 1009.76 1010.34 1011.08 1011.61 1012.07 1012.66 1012.99 1013.46 1014.20 1014.65 1015.13 1015.55 1015.87 1016.11 1016.17
1005.95 1004.41 1003.52 1002.94 1003.11 1003.63 1004.87 1006.36 1007.90 1009.60 1010.76 1010.51 1009.73 1008.75 1006.74 1005.78 1005.30 1004.78 1004.77 1005.16 1005.40 1005.65 1005.14 1005.06 1005.48 1006.20 1006.72 1007.18 1007.98 1009.04 1009.77 1010.17 1010.79 1011.48 1011.79 1012.36 1012.97 1013.57 1014.15 1014.53 1014.97 1015.41 1015.60 1015.44
1005.88 1005.01 1003.75 1003.40 1003.39 1003.81 1005.21 1006.59 1007.75 1009.50 1010.84 1010.60 1009.96 1008.34 1006.45 1006.02 1005.43 1005.34 1005.20 1005.29 1005.46 1005.13 1004.66 1004.50 1004.79 1005.31 1006.10 1006.91 1007.48 1007.92 1008.71 1009.32 1009.90 1010.51 1011.39 1012.03 1012.55 1013.13 1013.51 1013.91 1014.47 1014.78 1015.13 1015.34
1005.80 1005.76 1004.74 1004.07 1003.95 1004.43 1004.92 1006.54 1008.03 1009.53 1011.02 1011.15 1010.01 1008.65 1007.35 1006.54 1006.20 1006.14 1006.18 1006.30 1006.13 1005.68 1005.37 1004.96 1005.10 1005.46 1006.16 1006.70 1007.09 1007.77 1008.37 1008.94 1009.28 1010.11 1010.76 1011.25 1011.70 1012.37 1012.90 1013.46 1013.97 1014.24 1014.52 1015.12
1006.01 1006.50 1005.90 1005.23 1005.58 1005.92 1006.17 1007.13 1008.95 1010.33 1011.13 1011.28 1010.48 1008.69 1006.64 1006.40 1006.19 1006.30 1006.52 1006.48 1006.29 1006.27 1006.31 1006.10 1006.18 1006.32 1006.38 1006.76 1006.93 1007.33 1008.07 1008.79 1009.73 1009.86 1010.52 1010.80 1011.32 1011.77 1012.30 1012.76 1013.22 1013.51 1013.81 1014.31
1006.44 1007.13 1007.36 1006.87 1006.42 1006.55 1006.60 1007.57 1008.75 1010.46 1011.47 1011.46 1010.52 1008.19 1006.47 1006.27 1006.34 1006.60 1006.72 1006.18 1006.59 1006.57 1006.84 1007.07 1007.24 1007.34 1007.48 1007.68 1007.93 1008.28 1008.93 1009.50 1010.06 1010.17 1010.76 1011.38 1012.01 1012.09 1012.08 1012.42 1012.57 1012.92 1013.28 1013.50
1006.24 1007.74 1008.48 1007.86 1007.45 1007.00 1007.26 1007.77 1008.77 1009.73 1010.38 1010.87 1010.47 1008.34 1006.93 1006.64 1006.76 1006.75 1006.68 1006.86 1007.26 1007.30 1007.67 1007.85 1007.98 1008.26 1008.33 1008.49 1008.65 1008.52 1008.66 1008.73 1008.85 1009.26 1009.32 1009.41 1009.89 1010.90 1011.39 1011.77 1012.75 1013.22 1013.38 1013.37
1006.27 1008.50 1008.82 1008.65 1008.23 1007.98 1007.79 1007.89 1008.31 1009.20 1010.15 1010.49 1009.78 1008.40 1007.26 1007.43 1007.40 1007.23 1006.97 1007.20 1007.70 1007.97 1008.40 1008.59 1008.67 1008.68 1008.62 1008.55 1008.89 1009.21 1008.86 1008.49 1008.39 1008.34 1008.53 1008.63 1008.83 1009.35 1010.65 1011.58 1012.28 1012.84 1013.23 1013.57
1007.07 1008.50 1008.89 1008.56 1008.20 1007.94 1007.77 1007.75 1007.99 1008.49 1008.73 1009.32 1008.93 1008.81 1008.10 1008.26 1008.15 1007.85 1007.51 1007.67 1008.06 1008.13 1008.58 1008.85 1008.76 1008.76 1008.75 1008.74 1009.23 1009.38 1009.00 1008.64 1008.43 1008.26 1008.57 1008.72 1008.91 1009.29 1010.15 1010.79 1011.45 1011.82 1012.02 1012.65
1007.93 1008.90 1009.29 1008.95 1008.32 1008.04 1007.71 1007.20 1007.30 1007.46 1007.92 1008.51 1008.62 1008.64 1008.39 1008.49 1008.32 1008.05 1007.65 1007.95 1008.21 1008.15 1008.41 1008.80 1008.83 1008.76 1008.96 1009.04 1009.10 1009.39 1009.62 1009.29 1008.93 1008.74 1008.56 1008.39 1008.70 1009.21 1010.02 1009.97 1009.98 1010.26 1010.40 1010.49
1008.41 1009.26 1010.26 1009.85 1008.90 1008.19 1007.81 1006.74 1006.61 1006.69 1007.24 1007.84 1008.45 1008.24 1008.66 1008.95 1008.86 1008.73 1008.48 1008.31 1008.52 1008.62 1008.80 1009.03 1009.09 1009.03 1008.96 1009.14 1009.44 1009.91 1010.12 1009.93 1009.65 1009.77 1009.18 1008.95 1008.75 1008.96 1008.72 1008.56 1009.06 1009.20 1008.67 1007.45
1008.62 1009.75 1010.23 1010.51 1009.69 1008.98 1007.23 1006.39 1006.27 1006.85 1007.40 1007.62 1007.80 1008.24 1008.74 1009.00 1009.27 1009.17 1008.89 1008.66 1008.70 1008.84 1009.01 1009.11 1009.07 1009.07 1009.09 1009.19 1009.34 1009.75 1010.16 1010.51 1010.57 1010.40 1010.00 1009.60 1009.14 1009.03 1009.10 1009.17 1009.09 1009.01 1008.00 1007.62
1008.73 1009.83 1010.82 1010.95 1010.09 1008.79 1007.52 1006.62 1006.20 1006.47 1007.85 1007.82 1007.98 1008.50 1008.77 1009.01 1009.27 1009.34 1008.94 1008.75 1008.74 1008.88 1009.12 1009.16 1009.09 1008.97 1009.01 1009.23 1009.51 1009.75 1010.05 1010.49 1010.62 1010.60 1010.48 1010.20 1009.66 1009.42 1009.44 1009.34 1009.05 1008.82 1008.64 1008.53
1009.36 1009.73 1010.51 1011.27 1010.29 1008.60 1006.17 1005.20 1005.34 1005.93 1007.90 1007.84 1007.98 1008.22 1008.54 1009.02 1009.61 1009.56 1009.05 1008.82 1008.66 1008.67 1008.86 1008.94 1009.02 1009.28 1009.40 1009.42 1009.61 1009.82 1010.15 1010.28 1010.29 1010.17 1010.10 1009.79 1009.56 1009.43 1009.27 1009.17 1009.02 1009.02 1009.03 1009.02
1009.63 1010.41 1010.51 1010.54 1009.36 1007.32 1005.51 1005.11 1005.61 1006.32 1006.60 1006.73 1007.43 1007.82 1008.41 1008.85 1008.82 1008.71 1008.91 1008.83 1008.81 1008.84 1008.90 1009.15 1009.43 1009.72 1009.84 1009.79 1009.74 1009.94 1010.03 1009.94 1009.82 1009.78 1009.57 1009.28 1009.10 1008.87 1008.75 1008.99 1009.22 1009.16 1009.04 1008.97
1008.98 1009.59 1010.00 1010.03 1008.70 1006.92 1005.12 1005.73 1005.60 1004.92 1005.29 1005.78 1007.06 1007.63 1008.31 1008.51 1008.88 1009.02 1009.14 1009.29 1009.40 1009.49 1009.58 1009.66 1009.82 1010.11 1010.17 1010.05 1010.04 1010.30 1010.44 1010.42 1009.86 1009.56 1009.27 1008.89 1008.41 1008.25 1008.27 1008.25 1008.37 1008.46 1008.68 1008.55
1008.10 1007.72 1007.97 1008.12 1006.81 1005.58 1005.28 1004.86 1004.21 1004.32 1004.85 1006.12 1006.73 1007.45 1007.92 1008.49 1008.96 1009.24 1009.54 1009.68 1009.76 1009.98 1010.15 1010.28 1010.38 1010.42 1010.47 1010.39 1010.39 1010.54 1010.59 1010.46 1010.22 1009.68 1009.50 1009.25 1008.72 1008.05 1007.73 1007.87 1007.90 1008.37 1008.39 1008.44
1007.03 1006.90 1007.10 1007.20 1006.01 1005.27 1004.72 1004.55 1004.55 1004.49 1004.80 1005.87 1006.47 1007.32 1007.91 1008.54 1009.17 1009.63 1009.83 1010.10 1010.31 1010.37 1010.45 1010.52 1010.57 1010.64 1010.61 1010.66 1010.82 1010.97 1010.84 1010.58 1010.50 1010.35 1009.72 1009.20 1008.97 1008.41 1008.10 1007.78 1007.87 1007.79 1007.45 1007.43
1006.53 1006.43 1006.51 1006.47 1005.82 1005.20 1004.57 1004.47 1004.66 1005.04 1005.39 1006.15 1006.87 1007.37 1007.95 1008.62 1009.36 1009.77 1010.23 1010.58 1010.70 1010.78 1010.96 1011.11 1011.22 1011.21 1011.03 1010.81 1010.65 1010.61 1010.58 1010.37 1010.45 1010.32 1010.13 1009.67 1008.92 1008.63 1008.22 1007.80 1007.55 1007.28 1006.83 1006.55
1006.12 1005.72 1005.71 1005.56 1004.85 1004.90 1004.65 1004.56 1004.90 1005.44 1005.91 1006.33 1006.93 1007.89 1008.35 1008.66 1009.19 1009.81 1010.52 1010.80 1011.08 1011.31 1011.45 1011.63 1011.76 1011.70 1011.42 1011.16 1010.91 1010.60 1010.53 1010.58 1010.57 1010.03 1009.89 1009.58 1009.50 1009.10 1008.25 1007.64 1006.75 1006.10 1005.94 1005.71
Thickness
5790 5772 5765 5787 5792 5801 5798 5789 5793 5809 5823 5813 5803 5799 5794 5797 5797 5788 5786 5780 5779 5779 5778 5779 5780 5781 5781 5780 5779 5781 5780 5780 5779 5774 5772 5772 5773 5774 5773 5771 5770 5770 5769 5768
5782 5770 5801 5807 5806 5801 5797 5791 5791 5805 5814 5812 5806 5802 5803 5802 5804 5802 5796 5791 5788 5783 5783 5784 5784 5784 5785 5785 5783 5781 5782 5780 5779 5776 5776 5774 5773 5772 5771 5770 5769 5770 5769 5769
5778 5800 5817 5812 5805 5798 5799 5793 5792 5801 5803 5809 5803 5799 5800 5806 5810 5808 5807 5805 5801 5797 5796 5795 5793 5791 5791 5790 5790 5787 5787 5787 5785 5781 5777 5772 5770 5769 5767 5767 5768 5770 5769 5768
5793 5816 5815 5809 5809 5808 5796 5813 5811 5797 5787 5773 5802 5762 5797 5803 5805 5809 5813 5812 5811 5809 5808 5804 5801 5798 5800 5800 5799 5797 5793 5789 5788 5786 5780 5777 5773 5767 5771 5770 5770 5769 5770 5769
5800 5814 5812 5809 5816 5817 5804 5819 5808 5799 5781 5781 5780 5770 5793 5801 5797 5809 5818 5823 5824 5823 5820 5818 5815 5813 5814 5811 5807 5804 5800 5795 5791 5788 5786 5780 5775 5776 5774 5772 5771 5770 5770 5769
5807 5829 5828 5822 5833 5829 5824 5810 5791 5778 5769 5752 5771 5772 5781 5801 5809 5821 5827 5832 5833 5833 5830 5828 5831 5824 5819 5817 5813 5809 5804 5802 5798 5793 5789 5785 5781 5777 5771 5769 5770 5770 5768 5768
5801 5819 5830 5837 5823 5828 5816 5786 5753 5754 5744 5743 5763 5768 5789 5815 5826 5835 5835 5837 5844 5847 5844 5839 5837 5833 5827 5823 5821 5816 5810 5804 5801 5798 5794 5791 5786 5781 5777 5773 5770 5768 5767 5768
5775 5780 5824 5839 5829 5818 5806 5791 5757 5758 5739 5750 5772 5766 5798 5824 5831 5846 5850 5847 5845 5841 5848 5853 5848 5842 5838 5836 5828 5820 5814 5811 5808 5800 5798 5797 5791 5785 5781 5777 5774 5770 5768 5771
5778 5790 5827 5832 5835 5831 5807 5779 5792 5749 5747 5749 5755 5786 5818 5823 5829 5835 5840 5841 5841 5845 5850 5851 5850 5848 5841 5834 5829 5826 5820 5817 5813 5807 5799 5793 5790 5786 5782 5779 5776 5773 5769 5768
5801 5781 5815 5822 5831 5825 5820 5805 5776 5755 5753 5752 5753 5767 5776 5808 5819 5825 5824 5825 5833 5839 5842 5847 5847 5843 5835 5831 5829 5823 5819 5815 5814 5808 5803 5795 5791 5787 5784 5781 5776 5773 5771 5766
5800 5787 5794 5811 5800 5793 5794 5787 5761 5754 5741 5736 5735 5760 5800 5810 5819 5819 5821 5827 5830 5832 5831 5833 5833 5832 5831 5828 5826 5821 5810 5806 5800 5802 5798 5795 5788 5785 5784 5781 5778 5777 5775 5771
5800 5775 5767 5790 5800 5799 5799 5787 5769 5750 5755 5724 5733 5759 5820 5818 5821 5819 5818 5828 5827 5828 5826 5824 5822 5823 5822 5819 5815 5808 5799 5787 5791 5792 5787 5781 5772 5772 5777 5778 5779 5777 5774 5774
5803 5762 5739 5755 5775 5790 5781 5785 5763 5751 5746 5740 5738 5757 5811 5815 5814 5818 5821 5820 5817 5818 5815 5813 5814 5811 5809 5807 5804 5803 5801 5802 5802 5800 5802 5803 5798 5785 5778 5775 5765 5763 5762 5764
5798 5753 5752 5734 5756 5769 5776 5782 5776 5763 5741 5741 5745 5776 5805 5797 5798 5806 5816 5817 5812 5808 5804 5804 5804 5803 5803 5803 5796 5790 5793 5798 5797 5803 5807 5806 5805 5799 5784 5777 5772 5769 5764 5758
5788 5764 5762 5767 5769 5772 5775 5777 5778 5769 5767 5758 5771 5765 5787 5787 5789 5795 5805 5807 5803 5801 5799 5797 5799 5799 5798 5797 5790 5786 5790 5794 5797 5801 5798 5795 5798 5791 5787 5781 5778 5774 5774 5768
5774 5759 5761 5767 5771 5770 5766 5774 5769 5773 5765 5768 5766 5770 5789 5789 5793 5794 5801 5799 5796 5799 5798 5795 5796 5795 5791 5788 5786 5783 5782 5786 5788 5786 5787 5790 5789 5783 5778 5781 5781 5777 5775 5779
5771 5749 5739 5740 5752 5757 5748 5771 5781 5785 5779 5771 5758 5774 5782 5778 5781 5782 5787 5791 5789 5789 5789 5787 5788 5786 5786 5782 5779 5773 5770 5771 5771 5768 5767 5770 5777 5775 5777 5781 5778 5775 5780 5794
5753 5746 5732 5729 5742 5723 5760 5775 5781 5772 5768 5772 5773 5776 5776 5774 5774 5777 5782 5782 5782 5783 5782 5781 5782 5781 5782 5781 5779 5773 5767 5758 5752 5753 5756 5761 5764 5766 5766 5764 5765 5765 5774 5779
5761 5739 5724 5720 5716 5740 5758 5770 5770 5767 5759 5773 5770 5771 5773 5773 5772 5770 5777 5780 5779 5778 5776 5776 5777 5777 5776 5773 5771 5767 5762 5756 5752 5746 5747 5748 5753 5754 5754 5756 5758 5758 5758 5759
5744 5741 5734 5706 5721 5718 5757 5783 5788 5779 5733 5770 5771 5770 5768 5766 5750 5752 5772 5775 5776 5777 5775 5774 5773 5770 5768 5767 5764 5759 5753 5751 5751 5749 5745 5745 5744 5744 5745 5746 5748 5745 5741 5738
5730 5722 5720 5707 5720 5739 5771 5783 5782 5742 5748 5773 5772 5769 5763 5759 5759 5765 5769 5769 5771 5770 5769 5767 5764 5760 5759 5758 5756 5751 5747 5744 5743 5742 5741 5741 5740 5741 5741 5736 5731 5728 5728 5728
5732 5718 5713 5706 5718 5729 5778 5772 5759 5774 5780 5782 5770 5765 5759 5760 5758 5757 5756 5755 5755 5754 5754 5755 5752 5749 5748 5749 5746 5740 5735 5732 5734 5734 5735 5736 5738 5738 5737 5736 5731 5727 5723 5724
5726 5736 5730 5729 5734 5764 5770 5775 5787 5784 5780 5771 5769 5765 5761 5755 5751 5749 5747 5746 5748 5745 5742 5741 5740 5739 5736 5734 5731 5728 5724 5722 5721 5724 5723 5723 5725 5729 5729 5727 5725 5718 5716 5713
5744 5738 5733 5737 5754 5762 5771 5774 5776 5780 5776 5770 5768 5760 5757 5750 5745 5741 5739 5737 5736 5734 5733 5731 5730 5728 5725 5721 5717 5715 5713 5713 5711 5707 5710 5713 5712 5714 5714 5715 5711 5711 5712 5710
5733 5736 5727 5728 5746 5755 5767 5771 5769 5769 5768 5763 5759 5756 5751 5745 5738 5735 5730 5727 5725 5723 5720 5717 5716 5714 5714 5713 5710 5705 5703 5705 5701 5698 5694 5693 5699 5698 5697 5697 5695 5696 5700 5703
5728 5730 5722 5720 5744 5744 5751 5763 5762 5758 5757 5757 5752 5744 5742 5740 5734 5730 5722 5719 5714 5711 5707 5703 5700 5698 5699 5699 5699 5698 5694 5690 5686 5690 5686 5684 5678 5674 5677 5679 5686 5690 5690 5690